Regional Weather Roundup
Issued by NWS

Home | Current Version | Previous Version | Text Only | Print | Product List | Glossary Off
Versions: 1 2 3 4 5 6 7 8 9 10 11 12 13 14 15 16 17 18 19 20 21 22 23 24 25 26 27 28 29 30 31 32 33 34 35 36 37 38 39 40 41 42 43 44 45 46 47 48 49 50

000
ASUS43 KLSX 220259
RWRMO

WEATHER SUMMARY FOR MISSOURI
NATIONAL WEATHER SERVICE SPRINGFIELD MO
1000 PM CDT THU AUG 21 2014

NOTE: "FAIR" INDICATES FEW OR NO CLOUDS BELOW 12,000 FEET WITH NO
       SIGNIFICANT WEATHER AND/OR OBSTRUCTIONS TO VISIBILITY.
       CURRENT SKY AND/OR WEATHER CONDITIONS ARE NOT AVAILABLE FOR
       CHILLICOTHE AND FARMINGTON.

MOZ001>031-035>038-043-044-053-054-220400-
...NORTHERN AND WESTERN MISSOURI...

CITY           SKY/WX    TMP DP  RH WIND       PRES   REMARKS
KANSAS CTY INT CLEAR     85  72  65 S13       29.90R HX  91
KANSAS C DTWN  CLEAR     89  71  55 S16       29.88R HX  95
LEE`S SUMMIT   CLEAR     86  71  60 S10       29.92R HX  91
ST JOSEPH      CLEAR     83  74  74 S7        29.86R
KIRKSVILLE     PTCLDY    78  75  90 S6        29.92R

$$
MOZ066>068-077>081-088>096-101>105-220400-
...SOUTHWEST MISSOURI...

CITY           SKY/WX    TMP DP  RH WIND       PRES   REMARKS
SPRINGFIELD    CLEAR     83  67  58 SW13      30.00R
JOPLIN         CLEAR     83  70  64 S15       29.98R

$$
MOZ032>034-039>042-045>050-055>058-069>072-220400-
...CENTRAL MISSOURI...

CITY           SKY/WX    TMP DP  RH WIND       PRES   REMARKS
COLUMBIA         N/A     81  73  76 S6        29.94R
JEFFERSON CITY PTCLDY    80  75  84 E5        29.92R
ROLLA          CLEAR     84  67  56 S12       29.97R
SEDALIA        CLEAR     82  71  69 SW6       29.94R
OSAGE BEACH    CLEAR     84  66  54 S3        29.96R

$$
MOZ051-052-059>065-220400-
...EAST CENTRAL MISSOURI...

CITY           SKY/WX    TMP DP  RH WIND       PRES   REMARKS
ST LOUIS INTL  MOCLDY    88  76  67 S10       29.95R HX  99
SPIRIT OF STL  PTCLDY    79  76  90 CALM      29.93R
ST CHARLES     CLEAR     78  75  90 E6        29.92R

$$
MOZ072>076-082>087-097>100-106>115-220400-
...SOUTH CENTRAL AND SOUTHEAST MISSOURI...

CITY           SKY/WX    TMP DP  RH WIND       PRES   REMARKS
CAPE GIRARDEAU CLOUDY    83  73  72 S9        30.00R
FARMINGTON     PTCLDY    82  73  74 S9        30.02R
POPLAR BLUFF   MOCLDY    81  71  71 SW9       29.99R
WEST PLAINS    CLEAR     81  65  58 SW5       30.05R

$$


USA.gov is the U.S. government's official web portal to all federal, state and local government web resources and services.